CW3518 Weather Reports


Display with metric or nautical units.
time (UTC)temp
F
wind
direction
speed
MPH
gust
MPH
rain 1hr
in
rain 24hr
in
rain mn
in
humidity
%
barometer
mb
20260508035527 61 202 3.0 5.0 0.00 0.00 0.00 75 1016.0
20260508035027 62 192 4.0 5.0 0.00 0.00 0.00 74 1015.8
20260508034527 62 203 5.0 5.0 0.00 0.00 0.00 74 1015.8
20260508034027 62 151 4.0 5.0 0.00 0.00 0.00 74 1015.7
20260508033027 62 168 4.0 5.0 0.00 0.00 0.00 73 1015.7
20260508032527 62 148 5.0 5.0 0.00 0.00 0.00 73 1015.6
20260508032027 63 162 4.0 6.0 0.00 0.00 0.00 72 1015.6
20260508031527 63 149 5.0 6.0 0.00 0.00 0.00 72 1015.7
20260508031027 63 134 6.0 6.0 0.00 0.00 0.00 72 1015.5
20260508030527 63 130 6.0 7.0 0.00 0.00 0.00 71 1015.6
20260508030027 63 138 5.0 7.0 0.00 0.00 0.00 70 1015.5
20260508025527 63 140 5.0 6.0 0.00 0.00 0.00 70 1015.3
20260508025028 63 142 3.0 6.0 0.00 0.00 0.00 70 1015.3
20260508024527 63 134 4.0 7.0 0.00 0.00 0.00 71 1015.3
20260508024027 63 0 0.0 7.0 0.00 0.00 0.00 71 1015.3
20260508023527 63 141 5.0 9.0 0.00 0.00 0.00 71 1015.1
20260508023027 63 128 7.0 10.0 0.00 0.00 0.00 71 1015.1
20260508022027 64 0 0.0 8.0 0.00 0.00 0.00 69 1015.1
20260508021527 64 0 0.0 11.0 0.00 0.00 0.00 69 1015.0
20260508021027 64 125 10.0 12.0 0.00 0.00 0.00 68 1015.0
20260508020527 65 114 11.0 12.0 0.00 0.00 0.00 67 1015.0
20260508020029 65 0 0.0 10.0 0.00 0.00 0.00 65 1015.0
20260508015527 66 104 9.0 10.0 0.00 0.00 0.00 63 1014.9
20260508015028 66 104 9.0 10.0 0.00 0.00 0.00 61 1014.8
20260508014527 67 0 0.0 6.0 0.00 0.00 0.00 58 1014.8
20260508014031 67 134 4.0 4.0 0.00 0.00 0.00 57 1014.8
20260508012027 67 125 4.0 5.0 0.00 0.00 0.00 57 1014.7
20260508011027 68 116 5.0 6.0 0.00 0.00 0.00 57 1014.7
20260508010527 68 110 4.0 6.0 0.00 0.00 0.00 57 1014.8
20260508010027 68 120 4.0 6.0 0.00 0.00 0.00 55 1014.7
20260508005527 68 119 4.0 6.0 0.00 0.00 0.00 55 1014.7
20260508005027 68 114 5.0 6.0 0.00 0.00 0.00 55 1014.6
20260508004527 68 110 5.0 7.0 0.00 0.00 0.00 55 1014.5
20260508003028 69 133 5.0 7.0 0.00 0.00 0.00 54 1014.8
20260508002527 69 119 5.0 7.0 0.00 0.00 0.00 53 1014.8
20260508001527 70 123 5.0 8.0 0.00 0.00 0.00 52 1014.9
20260508001028 70 185 7.0 9.0 0.00 0.00 0.00 50 1014.9
20260507235528 71 128 7.0 7.0 0.00 0.00 0.00 49 1014.9
20260507235027 71 145 6.0 7.0 0.00 0.00 0.00 48 1014.8
20260507234027 71 151 5.0 7.0 0.00 0.00 0.00 46 1014.9
20260507233528 71 157 4.0 9.0 0.00 0.00 0.00 47 1014.9
20260507233027 71 126 8.0 10.0 0.00 0.00 0.00 46 1015.0
20260507232027 72 142 10.0 11.0 0.00 0.00 0.00 46 1014.9
20260507231527 72 147 6.0 11.0 0.00 0.00 0.00 46 1014.9
20260507231027 72 209 6.0 11.0 0.00 0.00 0.00 45 1015.0
20260507230528 72 121 5.0 9.0 0.00 0.00 0.00 48 1015.1
20260507230027 71 101 5.0 12.0 0.00 0.00 0.00 48 1015.0
20260507225527 71 122 6.0 12.0 0.00 0.00 0.00 46 1015.0
20260507225027 72 134 6.0 10.0 0.00 0.00 0.00 45 1015.1
20260507224527 72 187 8.0 11.0 0.00 0.00 0.00 46 1015.2
20260507222027 71 130 8.0 13.0 0.00 0.00 0.00 47 1015.4
20260507221527 71 119 11.0 13.0 0.00 0.00 0.00 47 1015.4
20260507221027 71 114 6.0 14.0 0.00 0.00 0.00 49 1015.4
20260507220527 71 106 8.0 14.0 0.00 0.00 0.00 49 1015.3
20260507215028 71 103 11.0 16.0 0.00 0.00 0.00 47 1015.5
20260507214527 72 119 6.0 13.0 0.00 0.00 0.00 47 1015.5
20260507214028 72 87 8.0 13.0 0.00 0.00 0.00 48 1015.5
20260507213527 71 75 5.0 11.0 0.00 0.00 0.00 43 1015.6
20260507213027 72 40 6.0 11.0 0.00 0.00 0.00 43 1015.6
20260507212527 72 76 9.0 10.0 0.00 0.00 0.00 44 1015.6
20260507212027 73 80 9.0 10.0 0.00 0.00 0.00 43 1015.7
20260507211528 71 6 2.0 14.0 0.00 0.00 0.00 44 1015.8
20260507211027 71 31 7.0 14.0 0.00 0.00 0.00 45 1015.8
20260507210527 72 71 7.0 14.0 0.00 0.00 0.00 45 1016.0
20260507210027 71 96 7.0 15.0 0.00 0.00 0.00 44 1015.8
20260507205527 71 51 10.0 15.0 0.00 0.00 0.00 44 1015.8
20260507205027 71 11 4.0 11.0 0.00 0.00 0.00 43 1016.0
20260507204527 72 38 8.0 11.0 0.00 0.00 0.00 44 1015.8
20260507204027 73 10 6.0 9.0 0.00 0.00 0.00 45 1016.0
20260507203527 71 279 2.0 10.0 0.00 0.00 0.00 44 1016.1
20260507203029 71 320 7.0 12.0 0.00 0.00 0.00 43 1016.2
20260507202527 72 358 9.0 13.0 0.00 0.00 0.00 43 1016.1
20260507202027 71 345 9.0 14.0 0.00 0.00 0.00 45 1016.3
20260507201527 70 40 10.0 14.0 0.00 0.00 0.00 45 1016.4
20260507195527 71 25 2.0 5.0 0.00 0.00 0.00 45 1016.7
20260507195027 71 309 3.0 5.0 0.00 0.00 0.00 44 1016.7
20260507194527 70 272 5.0 16.0 0.00 0.00 0.00 45 1016.7
20260507194027 69 44 4.0 17.0 0.00 0.00 0.00 45 1016.9
20260507193527 70 52 14.0 17.0 0.00 0.00 0.00 47 1016.9
20260507193027 69 38 9.0 12.0 0.00 0.00 0.00 46 1017.1
20260507192527 69 25 4.0 12.0 0.00 0.00 0.00 45 1017.2
20260507192027 70 95 7.0 16.0 0.00 0.00 0.00 46 1017.2
20260507191527 69 56 12.0 16.0 0.00 0.00 0.00 44 1017.3
20260507191028 69 38 11.0 11.0 0.00 0.00 0.00 47 1017.3
20260507190527 69 8 3.0 11.0 0.00 0.00 0.00 46 1017.4
20260507190027 69 22 6.0 13.0 0.00 0.00 0.00 46 1017.4
20260507185528 68 345 7.0 15.0 0.00 0.00 0.00 47 1017.5
20260507185027 68 21 11.0 15.0 0.00 0.00 0.00 46 1017.4
20260507184528 68 34 15.0 19.0 0.00 0.00 0.00 48 1017.4
20260507184027 68 20 12.0 19.0 0.00 0.00 0.00 47 1017.5
20260507183527 68 57 16.0 20.0 0.00 0.00 0.00 48 1017.6
20260507183027 67 48 14.0 20.0 0.00 0.00 0.00 48 1017.6
20260507182027 67 15 11.0 17.0 0.00 0.00 0.00 49 1017.7
20260507181527 67 29 15.0 17.0 0.00 0.00 0.00 48 1017.8
20260507181027 67 40 15.0 15.0 0.00 0.00 0.00 49 1017.9
20260507180528 67 339 5.0 15.0 0.00 0.00 0.00 47 1018.3
20260507180027 67 20 6.0 15.0 0.00 0.00 0.00 46 1018.4
20260507175527 67 52 12.0 15.0 0.00 0.00 0.00 47 1018.4
20260507175027 66 59 3.0 14.0 0.00 0.00 0.00 51 1018.6
20260507174527 67 22 5.0 11.0 0.00 0.00 0.00 47 1018.7
20260507174027 67 356 5.0 14.0 0.00 0.00 0.00 48 1018.9
20260507173527 67 357 9.0 14.0 0.00 0.00 0.00 47 1018.9
20260507173027 66 338 5.0 13.0 0.00 0.00 0.00 49 1019.1
20260507172527 66 81 7.0 16.0 0.00 0.00 0.00 47 1019.2
20260507172027 67 62 13.0 20.0 0.00 0.00 0.00 47 1019.3
20260507171527 67 55 17.0 20.0 0.00 0.00 0.00 46 1019.2
20260507170528 65 52 7.0 18.0 0.00 0.00 0.00 50 1019.4
20260507170027 65 61 14.0 18.0 0.00 0.00 0.00 50 1019.4
20260507165528 65 60 5.0 16.0 0.00 0.00 0.00 49 1019.5
20260507164527 65 55 12.0 16.0 0.00 0.00 0.00 49 1019.6
20260507164027 65 1 9.0 16.0 0.00 0.00 0.00 48 1019.6
20260507163527 64 26 12.0 16.0 0.00 0.00 0.00 51 1019.7
20260507163028 64 33 12.0 16.0 0.00 0.00 0.00 50 1019.7
20260507161527 64 42 5.0 16.0 0.00 0.00 0.00 54 1019.8
20260507160027 63 3 9.0 14.0 0.00 0.00 0.00 55 1019.9
20260507155527 63 82 7.0 11.0 0.00 0.00 0.00 55 1019.9
20260507155027 63 45 8.0 11.0 0.00 0.00 0.00 57 1019.9
20260507154527 62 41 11.0 12.0 0.00 0.00 0.00 59 1020.0
20260507154028 61 86 7.0 14.0 0.00 0.00 0.00 58 1020.1
20260507153528 62 53 12.0 14.0 0.00 0.00 0.00 57 1020.1
20260507153028 62 44 11.0 11.0 0.00 0.00 0.00 56 1020.1
20260507152527 61 44 6.0 13.0 0.00 0.00 0.00 59 1020.3
20260507151027 61 60 11.0 15.0 0.00 0.00 0.00 61 1020.1
20260507150528 61 37 13.0 13.0 0.00 0.00 0.00 60 1020.1
20260507150027 60 55 11.0 13.0 0.00 0.00 0.00 67 1020.3
20260507145528 60 62 12.0 12.0 0.00 0.00 0.00 68 1020.4
20260507145029 59 71 6.0 9.0 0.00 0.00 0.00 69 1020.6
20260507144527 58 20 8.0 9.0 0.00 0.00 0.00 71 1020.5
20260507144027 58 42 6.0 9.0 0.00 0.00 0.00 72 1020.6
20260507143528 58 26 4.0 9.0 0.00 0.00 0.00 72 1020.7
20260507143028 58 30 8.0 9.0 0.00 0.00 0.00 72 1020.6
20260507142527 57 21 8.0 9.0 0.00 0.00 0.00 73 1020.7
20260507141527 57 15 3.0 8.0 0.00 0.00 0.00 74 1020.9
20260507141027 56 44 5.0 9.0 0.00 0.00 0.00 75 1020.9
20260507140529 56 19 7.0 9.0 0.00 0.00 0.00 75 1020.9
20260507140027 56 356 8.0 9.0 0.00 0.00 0.00 74 1020.8
20260507135527 56 19 7.0 9.0 0.00 0.00 0.00 77 1020.9
20260507135027 55 11 7.0 8.0 0.00 0.00 0.00 77 1020.9
20260507134529 55 2 7.0 9.0 0.00 0.00 0.00 77 1020.9
20260507134027 55 15 6.0 9.0 0.00 0.00 0.00 79 1020.9
20260507133527 55 16 7.0 9.0 0.00 0.00 0.00 77 1020.8
20260507133027 55 4 8.0 9.0 0.00 0.00 0.00 78 1020.8
20260507132027 54 9 9.0 9.0 0.00 0.00 0.00 81 1020.8
20260507131527 54 354 8.0 8.0 0.00 0.00 0.00 80 1020.7
20260507131027 53 359 7.0 8.0 0.00 0.00 0.00 82 1020.7
20260507130527 53 0 4.0 8.0 0.00 0.00 0.00 82 1020.8
20260507130027 53 352 7.0 8.0 0.00 0.00 0.00 83 1020.8
20260507125527 52 345 5.0 7.0 0.00 0.00 0.00 84 1020.7
20260507125028 52 335 4.0 8.0 0.00 0.00 0.00 85 1020.6
20260507124027 51 342 7.0 8.0 0.00 0.00 0.00 86 1020.5
20260507123527 50 344 5.0 8.0 0.00 0.00 0.00 88 1020.4
20260507123028 50 340 7.0 8.0 0.00 0.00 0.00 88 1020.3
20260507122528 50 336 5.0 8.0 0.00 0.00 0.00 88 1020.3
20260507122028 50 342 7.0 8.0 0.00 0.00 0.00 88 1020.1
20260507121527 50 335 6.0 7.0 0.00 0.00 0.00 89 1020.1
20260507121027 49 323 7.0 7.0 0.00 0.00 0.00 90 1020.0
20260507120527 49 321 6.0 6.0 0.00 0.00 0.00 91 1019.9
20260507120028 49 310 5.0 6.0 0.00 0.00 0.00 91 1020.0
20260507115527 49 304 5.0 6.0 0.00 0.00 0.00 91 1020.0
20260507115027 49 290 5.0 6.0 0.00 0.00 0.00 91 1020.0
20260507114527 49 280 5.0 6.0 0.00 0.00 0.00 91 1020.0
20260507114027 49 277 6.0 6.0 0.00 0.00 0.00 91 1020.0
20260507113527 48 285 5.0 7.0 0.00 0.00 0.00 91 1020.0
20260507113027 48 296 6.0 8.0 0.00 0.00 0.00 91 1020.0
20260507112527 48 297 6.0 8.0 0.00 0.00 0.00 91 1019.9
20260507112028 49 298 7.0 8.0 0.00 0.00 0.00 90 1019.9
20260507111528 49 295 6.0 7.0 0.00 0.00 0.00 90 1019.9
20260507111027 49 295 5.0 8.0 0.00 0.00 0.00 91 1019.9
20260507110528 49 287 6.0 8.0 0.00 0.00 0.00 91 1019.6
20260507110027 49 287 7.0 7.0 0.00 0.00 0.00 91 1019.6
20260507105528 49 272 5.0 5.0 0.00 0.00 0.00 90 1019.6
20260507105028 50 274 3.0 5.0 0.00 0.00 0.00 90 1019.4
20260507104528 50 278 3.0 6.0 0.00 0.00 0.00 90 1019.3
20260507103528 50 299 5.0 8.0 0.00 0.00 0.00 90 1019.3
20260507103028 50 320 7.0 9.0 0.00 0.00 0.00 89 1019.5
20260507102527 50 312 5.0 9.0 0.00 0.00 0.00 90 1019.6
20260507102027 50 317 7.0 9.0 0.00 0.00 0.00 90 1019.5
20260507101527 50 326 6.0 9.0 0.00 0.00 0.00 90 1019.3
20260507101028 50 330 8.0 9.0 0.00 0.00 0.00 90 1019.2
20260507100528 51 322 7.0 9.0 0.00 0.00 0.00 90 1019.0
20260507100028 51 327 6.0 7.0 0.00 0.00 0.00 91 1018.7
20260507094528 51 352 5.0 8.0 0.00 0.00 0.00 91 1018.6
20260507094028 51 358 5.0 8.0 0.00 0.00 0.00 91 1018.5
20260507093028 51 349 6.0 7.0 0.00 0.00 0.00 91 1018.5
20260507092527 51 344 6.0 7.0 0.00 0.00 0.00 91 1018.4
20260507092028 51 358 4.0 7.0 0.00 0.00 0.00 91 1018.5
20260507091528 51 356 5.0 8.0 0.00 0.00 0.00 91 1018.5
20260507091028 51 353 7.0 8.0 0.00 0.00 0.00 91 1018.3
20260507090528 51 353 6.0 8.0 0.00 0.00 0.00 92 1018.3
20260507085528 51 0 6.0 9.0 0.00 0.00 0.00 92 1018.4
20260507085028 51 1 7.0 9.0 0.00 0.00 0.00 92 1018.3
20260507084527 51 356 7.0 8.0 0.00 0.00 0.00 92 1018.4
20260507084027 51 356 5.0 6.0 0.00 0.00 0.00 92 1018.5
20260507083527 51 338 4.0 6.0 0.00 0.00 0.00 91 1018.7
20260507083028 51 356 4.0 6.0 0.00 0.00 0.00 91 1018.6
20260507082528 51 358 6.0 6.0 0.00 0.00 0.00 91 1018.5
20260507082028 51 358 5.0 7.0 0.00 0.00 0.00 92 1018.5
20260507081528 51 340 5.0 7.0 0.00 0.00 0.00 92 1018.3
20260507081028 51 349 5.0 8.0 0.00 0.00 0.00 92 1018.3
20260507080528 51 6 6.0 8.0 0.00 0.00 0.00 92 1018.1
20260507080028 51 359 4.0 8.0 0.00 0.00 0.00 92 1018.1
20260507075528 51 2 8.0 8.0 0.00 0.00 0.00 92 1018.1
20260507075028 51 10 7.0 9.0 0.00 0.00 0.00 92 1018.1
20260507074527 51 7 7.0 9.0 0.00 0.00 0.00 92 1018.1
20260507074028 51 3 7.0 9.0 0.00 0.00 0.00 92 1018.1
20260507073528 51 7 7.0 9.0 0.00 0.00 0.00 91 1018.2
20260507073028 51 358 6.0 8.0 0.00 0.00 0.00 91 1018.3
20260507072528 51 3 7.0 8.0 0.00 0.00 0.00 91 1018.3
20260507072028 51 357 7.0 8.0 0.00 0.00 0.00 91 1018.4
20260507071528 51 10 7.0 8.0 0.00 0.00 0.00 92 1018.3
20260507071027 51 6 7.0 8.0 0.00 0.00 0.00 92 1018.3
20260507070528 51 8 6.0 8.0 0.00 0.00 0.00 92 1018.3
20260507065528 51 10 6.0 8.0 0.00 0.00 0.00 92 1018.3
20260507065028 51 5 7.0 8.0 0.00 0.00 0.00 92 1018.5
20260507064528 51 6 7.0 8.0 0.00 0.00 0.00 92 1018.4
20260507064028 51 3 7.0 7.0 0.00 0.00 0.00 91 1018.3
20260507063529 51 13 6.0 7.0 0.00 0.00 0.00 91 1018.3
20260507063028 51 6 5.0 7.0 0.00 0.00 0.00 91 1018.3
20260507062528 52 8 7.0 8.0 0.00 0.00 0.00 91 1018.3
20260507062028 52 12 7.0 8.0 0.00 0.00 0.00 91 1018.2
20260507061528 52 358 7.0 8.0 0.00 0.00 0.00 91 1018.2
20260507061028 52 3 7.0 7.0 0.00 0.00 0.00 91 1018.1
20260507060528 52 4 6.0 7.0 0.00 0.00 0.00 90 1018.1
20260507055528 53 5 5.0 6.0 0.00 0.00 0.00 89 1017.8
20260507055028 53 14 5.0 6.0 0.00 0.00 0.00 88 1017.7
20260507054528 53 21 5.0 6.0 0.00 0.00 0.00 88 1017.6
20260507054028 53 23 5.0 7.0 0.00 0.00 0.00 88 1017.7
20260507053528 53 26 6.0 7.0 0.00 0.00 0.00 87 1017.6
20260507053028 53 32 6.0 7.0 0.00 0.00 0.00 87 1017.5
20260507052028 53 30 6.0 8.0 0.00 0.00 0.00 87 1017.4
20260507051028 54 55 7.0 8.0 0.00 0.00 0.00 86 1017.5
20260507045528 54 56 7.0 8.0 0.00 0.00 0.00 85 1017.5
20260507045029 54 52 6.0 9.0 0.00 0.00 0.00 84 1017.5
20260507044528 54 58 7.0 9.0 0.00 0.00 0.00 84 1017.6
20260507044028 55 49 7.0 9.0 0.00 0.00 0.00 84 1017.6
20260507043528 55 50 7.0 8.0 0.00 0.00 0.00 83 1017.7
20260507043028 55 62 7.0 8.0 0.00 0.00 0.00 83 1017.8
20260507042028 55 46 7.0 9.0 0.00 0.00 0.00 82 1017.8
20260507041528 55 55 6.0 9.0 0.00 0.00 0.00 81 1017.8
20260507041028 55 54 7.0 9.0 0.00 0.00 0.00 81 1017.8
20260507040528 55 56 9.0 9.0 0.00 0.00 0.00 81 1017.7
20260507040028 56 60 6.0 8.0 0.00 0.00 0.00 80 1017.7